User: anonymous   Login
Location: Black Rock Desert
(40.7548°N, 119.2364°W)
Time: 11:10:57
(UTC-07:00)
Language:

Cosmos 1340 Rocket - Orbit

View from above orbital plane
View from above orbital plane
View from above satellite
View from above satellite

Ground track
Ground track

The orbit data is extracted from the following two-line orbital elements,

1 13068U 82013B   14298.11719747  .00005200  00000-0  36682-3 0  5398
2 13068 081.2048 244.0855 0021144 262.4118 097.4702 15.04636018778079
Epoch (UTC): 25 October 2014 02:48:45
Eccentricity: 0.0021144
inclination: 81.2048°
perigee height: 538 km
apogee height: 567 km
right ascension of ascending node: 244.0855°
argument of perigee: 262.4118°
revolutions per day: 15.04636018
mean anomaly at epoch: 97.4702°
orbit number at epoch: 77807

The dashed part of the orbit path shows where the satellite is in the earth's shadow,  

DLR